Regional Weather Roundup
Issued by NWS

Home | Current Version | Previous Version | Text Only | Print | Product List | Glossary On
Versions: 1 2 3 4 5 6 7 8 9 10 11 12 13 14 15 16 17 18 19 20 21 22 23 24 25 26 27 28 29 30 31 32 33 34 35 36 37 38 39 40 41 42 43 44 45 46 47 48 49 50
000
ASUS46 KPQR 230110
RWROR

OREGON REGIONAL WEATHER ROUNDUP
NATIONAL WEATHER SERVICE PORTLAND OR
600 PM PDT FRI MAY 22 2015

NOTE: "FAIR" INDICATES FEW OR NO CLOUDS BELOW 12,000 FEET WITH
NO SIGNIFICANT WEATHER AND/OR OBSTRUCTIONS TO VISIBILITY.

ORZ001>013-230200-
NORTHWEST OREGON


CITY           SKY/WX    TMP DP  RH WIND       PRES   REMARKS
ASTORIA        CLOUDY    55  51  86 SW10      30.07S
NEWPORT        CLOUDY    52  50  93 NW5       30.14R FOG
PORTLAND       CLOUDY    59  53  80 CALM      30.05S
VANCOUVER WA   CLOUDY    59  51  75 CALM      30.05S
SCAPPOOSE      CLOUDY    60  52  74 CALM      30.04S
HILLSBORO      CLOUDY    59  53  80 SE6       30.04S
AURORA         CLOUDY    57  55  93 S3        30.06S
MCMINNVILLE    LGT RAIN  61  51  70 CALM      30.05F
SALEM          CLOUDY    58  52  80 S3        30.05S
CORVALLIS      CLOUDY    64  48  55 N10       30.07S
EUGENE         PTSUNNY   63  50  62 SW7       30.06S
$$

ORZ021-028-230200-
SOUTHWEST OREGON


CITY           SKY/WX    TMP DP  RH WIND       PRES   REMARKS
NORTH BEND     CLOUDY    57  52  82 N8        30.13S
BROOKINGS      SUNNY     61  53  74 N16       30.03S
ROSEBURG       MOSUNNY   65  47  52 N9        30.06S
SEXTON SUMMIT  MOSUNNY   54  47  77 CALM      30.05S
MEDFORD        MOSUNNY   66  49  54 NE14      30.00R
$$

ORZ014>016-041-230200-
COLUMBIA GORGE


CITY           SKY/WX    TMP DP  RH WIND       PRES   REMARKS
TROUTDALE      CLOUDY    59  54  83 SW5       30.04S
THE DALLES     PTSUNNY   64  49  57 NW21G33   29.90S
$$

ORZ029>031-041-044-049-050-061>064-502-503-505>511-230200-
EASTERN OREGON


CITY           SKY/WX    TMP DP  RH WIND       PRES   REMARKS
REDMOND        LGT RAIN  55  51  86 W9        29.96S
BEND           PTSUNNY   57  46  67 NW9       29.97S
PRINEVILLE     LGT RAIN  54  52  94 W7        29.96F
KLAMATH FALLS  CLOUDY    60  45  57 NW20      29.98R
LAKEVIEW       CLOUDY    52  46  82 N6        29.97R
HERMISTON      CLOUDY    76  54  46 W15       29.79F
PENDLETON      CLOUDY    68  55  63 SE10      29.83F
JOHN DAY       CLOUDY    61  52  74 W13       29.92F
MEACHAM        CLOUDY    59  50  72 CALM      29.92S
LA GRANDE      CLOUDY    63  46  55 W16       29.86S
BAKER CITY     PTSUNNY   63  51  65 NW14      29.88S
BURNS          PTSUNNY   62  44  51 N14G23    29.89F
ROME             N/A     58  50  75 SW6       29.87F
ONTARIO        PTSUNNY   76  44  32 CALM      29.80S
$$


USA.gov is the U.S. government's official web portal to all federal, state and local government web resources and services.